This demonstration page uses our WeatherBlox Daily Observations layout. Learn more.

Left ArrowRight Arrow

Hourly Observations for August 9, 2020

Temp ( °F °C ) Dew Point ( °F °C ) Humidity (%) Winds ( mph kmh ) Pressure ( in mb ) Visibility ( mi km ) Precip ( " mm )
12:53 am 00:53 Clear 80 26.7 70 21.1 71 71 SSE 7 11 29.87 1012 10 16 0.00 0.00
1:53 am 01:53 Clear 80 26.7 69 20.6 69 69 SSE 13 20 29.85 1011 10 16 0.00 0.00
2:33 am 02:33 Mostly Cloudy with Nearby Thunderstorms 80 26.7 69 20.6 69 69 S 5 7 29.82 1010 10 16 0.00 0.00
2:48 am 02:48 Mostly Cloudy 79 26 70 21 74 74 NW 5 7 29.84 1010 10 16 0.00 0.00
2:53 am 02:53 Mostly Cloudy 79 26.1 70 21.1 74 74 Calm 29.86 1011 10 16 0.00 0.00
3:53 am 03:53 Clear 76 24.4 71 21.7 85 85 ENE 7 11 29.82 1010 10 16 0.00 0.00
4:53 am 04:53 Clear 75 23.9 70 21.1 84 84 ESE 9 15 29.82 1010 10 16 0.00 0.00
5:53 am 05:53 Clear 74 23.3 70 21.1 88 88 SE 8 13 29.82 1010 10 16 0.00 0.00
6:53 am 06:53 Sunny 73 22.8 69 20.6 87 87 SSE 8 13 29.83 1010 10 16 0.00 0.00
7:53 am 07:53 Sunny 74 23.3 67 19.4 79 79 SSE 10 17 29.85 1011 10 16 0.00 0.00
8:53 am 08:53 Sunny 76 24.4 67 19.4 74 74 SSW 8 13 29.88 1012 10 16 0.00 0.00
9:53 am 09:53 Sunny 80 26.7 67 19.4 64 64 S 8 13 29.86 1011 10 16 0.00 0.00
10:53 am 10:53 Sunny 83 28.3 69 20.6 63 63 SSW 8 13 29.85 1011 10 16 0.00 0.00
11:53 am 11:53 Sunny 86 30 71 21.7 61 61 SSW 5 7 29.84 1010 10 16 0.00 0.00
12:53 pm 12:53 Sunny 90 32.2 71 21.7 54 54 SSE 7 11 29.83 1010 10 16 0.00 0.00
1:53 pm 13:53 Sunny 91 32.8 72 22.2 54 54 S 13 20 29.81 1010 10 16 0.00 0.00
2:53 pm 14:53 Sunny 91 32.8 72 22.2 54 54 S 9 15 29.80 1009 10 16 0.00 0.00
3:53 pm 15:53 Sunny 94 34.4 71 21.7 48 48 S 12 19 29.78 1009 10 16 0.00 0.00
4:53 pm 16:53 Sunny 93 33.9 69 20.6 46 46 S 10 17 29.78 1009 10 16 0.00 0.00
5:53 pm 17:53 Sunny 92 33.3 71 21.7 51 51 S 8 13 29.78 1008 10 16 0.00 0.00
6:53 pm 18:53 Sunny 91 32.8 71 21.7 52 52 S 7 11 29.79 1009 10 16 0.00 0.00
7:53 pm 19:53 Sunny 88 31.1 71 21.7 57 57 S 3 6 29.81 1010 10 16 0.00 0.00
8:53 pm 20:53 Clear 83 28.3 72 22.2 70 70 SE 3 6 29.82 1010 10 16 0.00 0.00
9:53 pm 21:53 Clear 82 27.8 71 21.7 69 69 ESE 6 9 29.83 1010 10 16 0.00 0.00
10:53 pm 22:53 Clear 81 27.2 72 22.2 74 74 SE 7 11 29.82 1010 10 16 0.00 0.00
11:53 pm 23:53 Clear 80 26.7 72 22.2 76 76 SE 8 13 29.81 1009 10 16 0.00 0.00

Powered by AerisWeather